User: anonymous   Login
Location: Sungai Laei
(2.6000°N, 113.7167°E)
Time: 07:55:17
(UTC+00:00)
Language:

Meteor 1-27 - Orbit

View from above orbital plane
View from above orbital plane
View from above satellite
View from above satellite

Ground track
Ground track

The orbit data is extracted from the following two-line orbital elements,

1 09903U 77024A   22228.76452920  .00000232  00000-0  12746-3 0  9992
2 09903  81.2534  53.1264 0038572   3.2713 356.8702 14.08325584330409
Epoch (UTC): 16 August 2022 18:20:55
Eccentricity: 0.0038572
inclination: 81.2534°
perigee height: 837 km
apogee height: 893 km
right ascension of ascending node: 53.1264°
argument of perigee: 3.2713°
revolutions per day: 14.08325584
mean anomaly at epoch: 356.8702°
orbit number at epoch: 33040

The dashed part of the orbit path shows where the satellite is in the earth's shadow,  

DLR